EHI
0 2 4 5 7 12 17 22 23 19 15 12 9 5 2 1 0 0 1 1 1 0 0 0 1 1 1 0 0 0 0 0 0 0 0 0 0 0 0 0 0 0 1
2 3 5 6 8 11 15 19 21 19 15 12 8 5 3 1 0 0 1 2 1 0 0 0 1 1 1 0 0 0 0 0 0 0 0 0 0 0 0 0 0 1 2
8 6 7 9 10 11 12 14 16 17 15 12 8 6 4 2 1 0 1 1 1 0 0 0 1 2 2 1 0 0 0 0 0 0 0 0 0 0 0 0 0 1 2
12 9 9 13 15 13 11 11 12 14 13 10 7 6 5 4 2 1 1 0 0 0 0 0 1 2 2 1 1 1 0 0 0 0 0 0 0 0 1 1 1 1 1
12 10 11 17 19 15 12 11 12 11 9 6 3 3 4 4 3 3 3 1 0 0 0 0 0 1 1 1 0 0 0 0 0 0 0 0 0 1 2 2 2 2 2
10 8 11 18 20 16 13 13 13 10 6 3 2 2 3 3 4 4 3 1 0 0 0 0 0 1 1 0 0 0 1 2 1 1 0 0 0 1 3 3 3 3 3
9 8 11 17 19 15 11 11 11 10 7 4 3 3 3 3 4 4 2 0 0 0 0 0 0 1 1 1 0 1 1 2 2 2 1 0 0 2 3 3 3 3 3
10 10 12 15 17 13 8 7 9 9 8 6 6 5 4 3 3 2 1 1 1 1 1 1 1 1 1 1 2 1 1 2 2 2 1 0 0 1 2 3 3 3 3
11 12 13 14 14 11 7 5 7 9 9 7 6 5 4 3 2 1 1 3 3 2 2 2 3 3 3 3 3 3 3 3 3 2 1 0 1 2 1 2 3 3 3
12 12 12 11 11 9 5 4 5 6 7 5 3 2 2 2 2 1 1 3 3 3 3 4 4 4 4 3 3 4 4 4 3 2 1 1 2 2 1 2 2 2 2
13 12 10 10 9 7 5 5 4 4 4 3 1 0 1 1 1 0 1 2 2 3 3 4 4 3 3 2 2 2 2 1 1 0 0 1 2 3 2 2 2 1 1
11 10 8 8 8 7 6 6 5 4 3 1 0 0 0 0 0 0 0 1 1 1 2 2 1 1 1 1 1 0 0 0 0 0 0 1 2 3 3 3 3 2 1
9 8 7 7 7 6 6 6 5 4 3 1 0 0 0 0 0 0 0 0 0 0 0 0 0 0 1 1 1 0 0 0 0 0 0 1 2 3 3 3 3 2 1
8 7 6 6 6 6 5 5 5 4 3 2 1 0 0 0 0 0 0 0 0 0 0 0 0 1 2 2 2 1 0 0 0 0 0 1 2 4 4 4 4 3 2
10 8 7 6 6 6 5 4 4 3 3 3 2 1 1 0 0 0 0 0 0 0 0 0 1 1 2 3 3 2 0 0 0 0 1 1 2 4 5 6 6 5 4
13 11 8 7 6 7 6 4 3 3 3 3 3 3 2 1 0 0 0 0 0 0 0 1 1 2 2 2 2 1 0 0 0 0 0 1 2 4 5 6 7 7 5
16 14 11 9 8 7 6 4 3 3 3 3 3 3 3 1 0 0 0 0 0 1 1 2 2 2 2 1 1 0 0 0 0 0 0 0 1 3 4 5 6 6 5
19 18 16 14 11 8 5 4 3 3 3 3 3 3 3 2 2 2 1 0 1 1 2 2 2 2 1 1 0 0 0 0 0 0 0 0 0 1 3 4 4 4 5
20 20 18 16 13 10 6 4 3 3 3 3 3 3 3 3 3 3 2 1 1 1 1 1 2 2 1 1 0 0 0 0 0 0 0 0 0 0 1 2 2 2 3
20 19 17 13 11 9 7 5 4 3 3 3 3 4 4 3 3 3 3 2 1 1 2 2 2 1 1 0 0 0 0 0 0 0 0 0 0 0 0 0 0 1 1
18 17 16 13 10 11 10 8 6 3 2 3 4 5 5 4 3 3 3 2 2 2 3 3 3 2 1 0 0 0 0 0 0 0 0 0 0 0 0 0 0 0 0
15 14 15 13 12 13 15 12 6 3 1 2 4 6 6 4 3 3 4 3 3 3 4 4 4 4 3 1 0 0 0 0 0 0 0 0 0 0 0 0 0 0 0
12 12 12 12 12 16 18 14 9 6 4 4 5 6 6 5 4 5 5 4 4 4 5 6 6 6 5 3 1 0 0 0 0 0 0 0 0 0 0 0 0 0 0
10 9 10 11 13 17 18 17 15 12 9 7 7 7 7 6 6 7 6 5 4 5 6 6 6 6 5 4 2 1 0 0 0 0 0 0 0 0 0 0 0 0 0
9 8 8 11 14 14 15 18 19 16 12 10 8 8 7 6 7 8 6 4 4 5 5 4 4 4 4 3 3 2 1 1 0 0 0 0 0 0 0 0 0 0 0
10 8 8 11 13 13 13 17 20 18 14 9 8 8 6 5 6 8 6 4 3 4 4 4 3 3 3 3 2 2 2 2 1 0 0 0 0 0 0 0 0 0 0
Wind_Speed
3 3 6 6 6 6 6 7 7 8 8 8 8 8 7 7 7 6 6 6 6 6 6 6 5 5 5 5 5 5 5 5 5 5 6 7 8 9 10 10 10 8 11
5 4 7 7 6 6 6 6 7 7 7 7 7 7 7 7 6 6 6 6 6 6 6 6 6 5 5 5 4 4 4 4 4 5 5 6 7 8 9 10 10 7 11
6 5 6 7 7 7 6 6 6 6 6 6 7 6 6 6 6 5 5 5 5 6 6 5 5 5 4 4 4 3 3 3 3 4 4 3 5 7 8 8 10 10 11
7 5 5 7 7 7 6 6 6 6 6 6 6 6 6 6 5 5 5 5 5 5 5 5 5 4 4 4 3 3 3 2 4 4 2 3 3 6 7 8 9 10 11
6 4 5 9 8 7 6 5 5 5 5 5 5 5 5 5 5 5 5 5 5 5 5 5 4 4 3 3 3 2 2 3 4 3 2 2 2 5 7 7 9 10 10
5 4 5 8 8 7 6 5 5 4 4 4 4 4 4 4 4 4 4 4 4 4 4 4 3 3 3 3 2 2 2 3 4 3 2 2 3 5 6 7 9 9 9
5 3 4 7 7 7 6 5 5 4 4 3 4 3 3 3 3 4 4 3 3 3 3 3 3 3 3 3 2 2 3 3 3 3 2 2 3 6 6 7 8 9 9
5 3 3 6 7 6 5 4 4 3 3 3 3 3 3 3 3 3 3 3 3 3 3 3 3 4 4 3 3 3 4 3 3 3 2 2 4 6 6 6 6 7 9
4 3 2 2 4 5 4 4 3 3 3 3 3 3 3 3 3 3 3 3 3 3 3 3 4 4 5 4 4 3 4 4 3 2 2 2 4 5 6 6 6 7 8
3 2 2 1 2 2 2 3 3 3 3 3 2 2 2 2 2 2 2 2 3 3 3 3 3 4 5 5 5 5 4 3 2 2 1 2 4 5 6 7 7 7 8
3 2 1 2 1 1 1 2 2 2 2 2 1 1 1 1 2 2 2 2 3 2 2 3 3 4 4 4 5 5 5 2 2 1 1 2 4 4 5 6 7 7 8
6 4 2 2 2 2 2 1 1 1 1 1 1 1 1 1 1 2 4 3 3 3 3 3 3 4 4 3 3 4 2 2 1 0 1 1 3 4 4 5 6 7 7
6 5 4 3 3 3 1 1 1 1 1 1 1 1 1 1 1 2 2 3 3 3 2 3 3 2 2 2 2 2 2 2 1 1 0 0 1 3 4 5 6 7 7
5 5 4 4 3 3 2 1 1 1 1 1 0 1 1 1 1 1 1 2 2 1 1 1 1 2 3 2 2 2 2 1 1 1 1 1 1 1 3 4 6 6 6
6 5 5 4 4 3 2 1 1 1 1 1 1 1 1 1 0 1 1 1 1 1 1 1 1 2 2 2 2 2 2 2 1 1 1 2 1 0 2 4 5 6 6
7 6 5 5 4 4 3 2 1 1 1 1 0 0 1 1 1 0 1 1 1 1 1 1 1 1 1 1 2 2 2 2 2 1 1 2 2 1 1 3 4 6 6
7 5 5 5 4 4 3 3 2 1 1 1 0 1 1 1 1 1 0 1 1 1 1 1 2 1 1 2 2 2 2 2 2 2 2 2 2 2 2 1 2 3 4
5 5 5 5 5 4 3 2 1 1 1 1 0 0 0 0 1 1 1 0 1 1 1 1 1 1 1 2 2 2 2 2 3 3 2 2 2 1 2 2 1 1 2
6 6 6 5 5 4 3 2 1 1 1 0 0 0 0 0 1 1 1 0 1 1 1 1 2 1 1 2 1 2 2 2 2 3 2 2 2 1 1 1 1 1 1
5 5 5 4 4 4 2 2 1 1 0 0 0 0 1 1 1 1 1 1 2 2 2 2 2 2 1 1 2 3 2 2 2 2 2 2 2 2 2 2 1 1 1
4 4 5 4 4 4 3 2 1 1 1 0 0 1 1 1 1 1 1 2 2 2 2 2 2 2 2 2 2 2 3 3 2 2 2 2 2 2 2 2 1 1 1
4 4 4 4 4 4 3 3 2 1 1 1 0 1 1 1 1 2 2 2 2 2 3 2 2 2 2 2 1 1 2 3 3 3 2 2 2 2 2 2 2 1 1
4 5 4 4 5 4 4 3 2 2 1 1 1 0 0 0 1 2 2 2 2 2 2 1 1 2 1 2 2 2 1 0 2 3 3 2 2 2 2 2 2 1 1
5 4 3 4 4 4 4 4 5 3 2 2 1 0 1 1 1 2 2 2 2 2 2 1 2 2 2 1 1 1 1 2 1 1 2 2 3 2 2 2 2 2 1
5 5 4 4 3 4 4 5 5 3 2 1 1 1 1 1 1 2 2 2 2 2 2 2 2 2 2 1 1 0 1 1 1 1 1 2 2 2 2 1 1 1 1
4 4 4 4 3 4 4 4 4 4 3 2 1 1 1 1 1 1 2 2 2 2 2 2 2 2 2 2 1 1 1 1 0 1 1 1 1 2 2 1 1 1 1
Wind_Direction
187 184 172 157 144 132 121 110 102 98 96 96 94 93 94 95 95 95 92 93 95 99 105 106 104 102 106 110 113 115 120 128 133 137 142 149 151 156 157 155 152 153 151
157 165 168 160 149 136 125 116 106 101 101 101 100 97 94 94 97 96 93 91 94 100 104 105 105 102 103 105 106 108 123 134 143 149 152 156 155 155 157 159 160 153 155
145 158 164 161 151 140 129 121 115 108 105 104 103 100 95 93 97 99 95 92 92 96 100 103 103 98 95 103 107 104 114 136 147 148 148 148 154 159 161 162 163 158 158
146 152 163 163 154 144 135 129 123 118 111 104 103 102 96 91 93 98 96 94 92 92 95 98 99 96 90 91 96 103 116 130 137 133 129 141 160 163 167 163 163 164 163
145 153 171 165 158 150 143 137 132 125 120 109 104 103 97 92 90 97 101 100 97 95 92 92 91 92 89 83 80 94 110 125 132 131 125 134 149 153 159 164 166 170 167
150 158 176 168 162 156 151 145 143 134 128 120 112 104 99 96 95 100 105 105 99 95 92 91 86 81 75 72 65 75 98 120 128 126 130 144 158 159 166 169 171 170 168
154 160 177 173 167 162 158 151 147 139 134 127 118 108 97 92 94 96 97 101 102 92 82 81 78 69 61 63 67 74 83 103 114 126 138 152 161 163 166 167 170 170 170
153 157 173 177 169 165 165 160 152 145 137 126 116 108 97 92 93 93 93 89 85 74 67 64 60 56 51 49 55 65 75 83 112 129 138 156 160 160 159 154 154 163 166
140 146 165 170 165 166 168 165 162 148 138 131 116 105 99 93 90 84 79 81 78 72 63 60 52 44 39 36 36 47 67 80 92 121 143 150 159 167 164 162 158 158 161
131 144 157 157 143 149 170 172 150 141 135 132 125 113 102 85 69 65 62 64 67 61 57 54 44 38 33 28 32 40 54 69 78 101 119 152 162 171 170 171 168 164 164
163 170 162 156 142 141 158 166 153 151 135 127 124 112 89 27 11 15 14 31 33 31 38 47 41 37 33 27 29 38 46 48 64 78 107 156 168 173 175 177 174 169 167
186 190 182 171 158 149 168 148 124 130 93 95 63 36 51 46 17 21 10 8 8 13 18 27 27 27 27 23 22 32 34 41 47 57 99 152 167 166 157 157 157 161 169
186 187 186 183 170 163 166 141 128 89 83 90 75 62 61 47 20 19 11 359 356 1 12 19 21 23 30 28 21 26 32 39 26 9 66 134 163 174 167 164 160 163 173
179 192 187 180 171 172 163 157 147 129 120 108 63 75 83 62 24 7 4 352 1 4 13 19 23 21 27 25 27 25 30 39 29 11 18 78 125 170 177 175 175 171 170
183 190 185 176 175 173 163 173 159 158 164 157 123 104 119 114 41 359 354 2 359 2 10 6 19 22 19 18 22 33 28 28 13 12 15 42 70 159 212 193 182 172 171
189 190 179 179 179 169 169 170 170 167 161 129 141 177 159 156 152 102 10 359 356 353 10 46 35 22 6 10 15 23 26 25 17 18 27 32 45 19 223 191 181 178 182
186 178 177 181 173 171 174 177 169 161 145 157 210 211 183 176 174 152 100 2 332 353 43 63 44 40 16 19 16 13 22 19 23 30 33 33 22 21 51 114 150 160 172
167 164 177 181 173 173 173 176 164 150 154 190 217 196 218 192 158 133 113 339 338 37 57 70 56 50 26 21 18 12 24 23 26 37 37 35 27 24 31 60 93 133 162
164 164 173 173 170 176 172 158 153 141 157 169 91 89 106 110 127 137 122 50 52 65 56 53 58 62 46 18 20 29 27 30 23 29 37 43 37 36 35 38 55 100 133
161 162 171 170 163 159 143 112 87 70 55 96 110 163 161 150 132 129 105 62 74 76 62 57 59 52 44 7 29 37 28 33 35 26 20 35 36 39 26 18 44 82 96
155 163 172 170 170 153 142 146 156 212 231 225 193 150 151 149 132 116 91 75 80 87 87 84 77 55 33 19 46 26 14 24 30 26 29 39 37 30 31 31 47 63 95
168 173 172 177 178 170 163 157 153 165 227 191 322 59 82 116 122 127 106 93 88 90 75 67 80 86 46 36 65 58 10 358 360 13 22 32 24 22 24 26 44 59 58
174 179 181 179 177 171 155 126 104 82 30 28 13 3 347 120 112 114 113 107 97 100 98 89 93 103 96 42 57 105 116 281 330 348 9 18 15 16 8 18 37 36 34
184 170 169 173 173 164 153 150 149 162 185 215 221 252 15 60 91 107 105 108 101 98 102 99 92 100 110 82 41 51 109 161 167 331 347 3 9 12 3 14 18 15 6
172 165 168 164 162 157 162 172 161 163 184 162 104 83 58 40 64 91 102 105 104 102 103 94 91 90 103 115 108 91 68 56 92 165 307 337 356 1 4 3 8 354 345
159 156 152 153 157 161 165 166 160 164 163 139 115 104 68 23 38 73 106 105 109 109 109 107 101 90 84 92 92 97 124 137 180 165 210 293 321 327 354 358 5 344 352